Regional Weather Roundup
Issued by NWS Huntsville, AL

Home | Current Version | Previous Version | Text Only | Print | Product List | Glossary On
Versions: 1 2 3 4 5 6 7 8 9 10 11 12 13 14 15 16 17 18 19 20 21 22 23 24 25 26 27 28 29 30 31 32 33 34 35 36 37 38 39 40 41 42 43 44 45 46 47 48 49 50
000
ASUS44 KHUN 280510
RWRHUN

WEATHER ROUNDUP FOR THE TENNESSEE VALLEY
NATIONAL WEATHER SERVICE HUNTSVILLE AL
1200 AM CDT FRI APR 28 2017

ALZ001>004-280600-
NORTHWEST ALABAMA

CITY           SKY/WX    TMP DP  RH WIND       PRES   REMARKS
COURTLAND HCN    N/A     55 N/A N/A CALM        N/A
RUSSELLVILLE     N/A     54 N/A N/A MISG        N/A
SHOALS AIRPORT CLOUDY    54  52  93 SE3       29.88S
SHOALS TVA RES   N/A     55 N/A N/A MISG        N/A
$$

ALZ005>007-016-280600-
NORTH CENTRAL ALABAMA

CITY           SKY/WX    TMP DP  RH WIND       PRES   REMARKS
CULLMAN AG STN   N/A     54 N/A N/A CALM        N/A
DECATUR AP     CLEAR     54  54 100 CALM      29.89R
HUNTSVILLE AP  CLEAR     59  58  96 SE3       29.89R
MERIDIANVILLE  CLEAR     55  54  94 CALM      29.89S
REDSTONE ARSN  CLEAR     57  56  96 CALM      29.89R
VINEMONT AP    FAIR      55  54  98 CALM      29.91S
$$

ALZ008>010-280600-
NORTHEAST ALABAMA

CITY           SKY/WX    TMP DP  RH WIND       PRES   REMARKS
ALBERTVILLE    CLEAR     59  59 100 SE3       29.90R
FORT PAYNE     CLEAR     54  52  94 CALM      29.91R
SCOTTSBORO AP  CLEAR     57  57 100 CALM      29.91R
SCOTTSBORO HCN   N/A     57 N/A N/A MISG        N/A
VALLEY HEAD      N/A     55 N/A N/A MISG        N/A
$$

TNZ076-096-097-280600-
SOUTHEASTERN MIDDLE TENNESSEE

CITY           SKY/WX    TMP DP  RH WIND       PRES   REMARKS
TULLAHOMA      CLEAR     52  50  93 CALM      29.92R
WINCHESTER     CLEAR     54  54 100 CALM      29.91R
$$

...SURROUNDING SITES...

CITY           SKY/WX    TMP DP  RH WIND       PRES   REMARKS
ATLANTA        MOCLDY    68  68 100 S8        29.91R
ANNISTON       CLEAR     61  59  93 CALM      29.91R
BIRMINGHAM     CLEAR     62  59  90 CALM      29.91R
CHATTANOOGA    CLEAR     60  56  86 CALM      29.91R
CORINTH        FAIR      55  54  94 CALM      29.84R
DALTON         CLEAR     59  59 100 CALM      29.92R
GADSDEN        CLEAR    N/A N/A N/A CALM      29.91R
GOLDEN TRNGL   CLEAR     59  52  77 NE3       29.81R
HALEYVILLE     FAIR      54  53  97 CALM      29.90S
JACKSON TN     MOCLDY    56  54  93 E3        29.84F
MEMPHIS        CLEAR     60  53  77 E6        29.81R
NASHVILLE      CLEAR     55  51  86 CALM      29.90R
OXFORD MS      FAIR      55  52  88 SE5       29.85R
ROME           CLEAR     60  58  92 CALM      29.90R
SAVANNAH       CLEAR     54  52  94 CALM      29.84S
TUPELO         PTCLDY    59  54  83 CALM      29.84S
TUSCALOOSA     CLEAR     60  59  96 CALM      29.86R
$$

...GULF COAST WEATHER...

CITY           SKY/WX    TMP DP  RH WIND       PRES   REMARKS
GULFPORT       CLOUDY    76  74  93 S13       29.81F
PASCAGOULA     MOCLDY    75  72  90 S8        29.83F
MOBILE         CLOUDY    75  72  90 S12       29.84F
GULF SHORES    CLOUDY    75  75 100 S10       29.87R
PENSACOLA      CLOUDY    76  73  91 S13       29.86S
DESTIN         MOCLDY    77  77 100 VRB7      29.89R
PANAMA CITY    MOCLDY    75  73  94 SE10      29.93R
APPALACHICOLA  CLOUDY    75  75 100 S9        29.93R FOG
$$




USA.gov is the U.S. government's official web portal to all federal, state and local government web resources and services.